Regional Weather Roundup
Issued by NWS

Home | Current Version | Previous Version | Graphics & Text | Print | Product List | Glossary On
Versions: 1 2 3 4 5 6 7 8 9 10 11 12 13 14 15 16 17 18 19 20 21 22 23 24 25 26 27 28 29 30 31 32 33 34 35 36 37 38 39 40 41 42 43 44 45 46 47 48 49 50
170
ASUS43 KOAX 230102
RWRNE

WEATHER ROUNDUP FOR NEBRASKA
NATIONAL WEATHER SERVICE OMAHA NE
800 PM CDT FRI SEP 22 2017

NOTES: SATELLITE DATA IS BEING USED TO AUGMENT CLOUD COVER ABOVE
       12000 FEET.
       "FAIR" INDICATES FEW OR NO CLOUDS BELOW 12,000 FEET WITH NO
       SIGNIFICANT WEATHER AND/OR OBSTRUCTIONS TO VISIBILITY.


NEZ001>004-019>022-054>056-230200-
NEBRASKA PANHANDLE

CITY           SKY/WX    TMP DP  RH WIND       PRES   REMARKS
SCOTTSBLUFF    PTCLDY    66  42  41 N6        29.85S
ALLIANCE       CLEAR     60  45  57 NE8       29.85R
CHADRON        MOCLDY    59  39  47 NE16G25   29.88R
GORDON         FAIR      56  42  59 N12G17    29.88R
KIMBALL        CLOUDY    64  45  50 N10       29.88R
SIDNEY         CLOUDY    64  45  49 N15       29.85R
$$

NEZ057>060-069>072-079>082-230200-
SOUTHWEST NEBRASKA

CITY           SKY/WX    TMP DP  RH WIND       PRES   REMARKS
NORTH PLATTE   CLOUDY    87  54  32 S10       29.73R
IMPERIAL       CLOUDY    78  35  21 CALM      29.72S
LEXINGTON      PTCLDY    85  53  32 SE8       29.74R
MCCOOK         PTCLDY    88  54  31 S14       29.72R
OGALLALA       MOCLDY    74  47  38 NE22      29.76R
$$

NEZ005>010-023>029-035>040-094-230200-
NORTH CENTRAL NEBRASKA

CITY           SKY/WX    TMP DP  RH WIND       PRES   REMARKS
VALENTINE      CLOUDY    64  45  49 N13       29.83R
AINSWORTH      RAIN      64  53  67 N13       29.83R
BROKEN BOW     CLOUDY    87  55  33 S17       29.73S
O`NEILL        CLOUDY    66  61  83 N10       29.79R
ORD            CLOUDY    86  56  35 S14       29.72R
THEDFORD       CLOUDY    65  51  61 N6        29.83R
$$

NEZ041-046>049-061>064-073>077-083>087-230200-
SOUTH CENTRAL NEBRASKA

CITY           SKY/WX    TMP DP  RH WIND       PRES   REMARKS
GRAND ISLAND   CLOUDY    85  65  51 S18G25    29.77S
AURORA         CLOUDY    84  62  47 S15       29.80R
HASTINGS       MOCLDY    87  60  40 S17       29.80R
HEBRON         PTCLDY    87  64  46 S10       29.83R
HOLDREGE       CLOUDY    86  55  35 SE17G29   29.76R
KEARNEY        CLOUDY    86  61  42 S23G29    29.75S
YORK           CLOUDY    84  64  51 S13       29.81R
$$

NEZ011>018-030>034-042>045-230200-
NORTHEAST NEBRASKA

CITY           SKY/WX    TMP DP  RH WIND       PRES   REMARKS
NORFOLK        MOCLDY    84  63  49 S20G26    29.76R
ALBION         CLOUDY    86  65  50 S15G23    29.77R
BLAIR          CLEAR     85  69  57 SE14G20   29.84R
COLUMBUS       MOCLDY    84  65  52 SE13      29.78R
FREMONT        PTCLDY    85  67  53 SE15G21   29.82R
TEKAMAH        PTCLDY    84  68  58 SE13      29.81R
WAYNE          PTCLDY    82  65  55 S18       29.76S
$$

NEZ050>053-065>068-078-088>093-230200-
SOUTHEAST NEBRASKA

CITY           SKY/WX    TMP DP  RH WIND       PRES   REMARKS
LINCOLN        MOCLDY    86  67  52 S18G28    29.82R
OMAHA EPPLEY   MOCLDY    87  67  51 S21G30    29.84R HX  90
BEATRICE       PTCLDY    86  68  54 SE14G20   29.84R
FALLS CITY     CLEAR     81  68  64 S10       29.88S
NEBRASKA CITY  CLEAR     82  68  61 S14       29.88R
PLATTSMOUTH    CLEAR     84  68  57 SE16G23   29.86R
$$

NEZ044-045-051>053-067-230200-
OMAHA AREA

CITY           SKY/WX    TMP DP  RH WIND       PRES   REMARKS
OMAHA EPPLEY   MOCLDY    87  67  51 S21G30    29.84R HX  90
BLAIR          CLEAR     85  69  57 SE14G20   29.84R
FREMONT        PTCLDY    85  67  53 SE15G21   29.82R
MILLARD        PTCLDY    86  70  58 SE10      29.84R HX  90
OFFUTT AFB     CLEAR     84  67  56 SE16      29.84R
PLATTSMOUTH    CLEAR     84  68  57 SE16G23   29.86R
WAHOO          FAIR      85  66  52 SE13G18   29.82R
$$




USA.gov is the U.S. government's official web portal to all federal, state and local government web resources and services.